TimeAKDT,TemperatureF,Dew PointF,Humidity,Sea Level PressureIn,VisibilityMPH,Wind Direction,Wind SpeedMPH,Gust SpeedMPH,PrecipitationIn,Events,Conditions,WindDirDegrees,DateUTC
12:53 AM,55.0,51.1,86,29.63,10.0,East,15.0,-,N/A,,Overcast,90,2013-08-24 08:53:00
1:53 AM,55.0,50.0,83,29.63,10.0,East,9.2,-,0.00,Rain,Light Rain,100,2013-08-24 09:53:00
2:53 AM,54.0,50.0,86,29.62,10.0,East,11.5,-,0.01,,Overcast,80,2013-08-24 10:53:00
3:53 AM,54.0,51.1,90,29.62,8.0,East,10.4,-,0.01,,Overcast,80,2013-08-24 11:53:00
4:53 AM,54.0,51.1,90,29.62,10.0,East,11.5,-,0.01,,Overcast,80,2013-08-24 12:53:00
5:53 AM,54.0,52.0,93,29.62,5.0,ENE,10.4,-,0.02,Rain,Light Rain,70,2013-08-24 13:53:00
6:53 AM,53.1,52.0,96,29.62,7.0,East,11.5,-,0.03,Rain,Light Rain,80,2013-08-24 14:53:00
7:53 AM,54.0,52.0,93,29.63,5.0,East,11.5,-,0.04,Rain,Light Rain,90,2013-08-24 15:53:00
8:53 AM,53.1,52.0,96,29.64,8.0,East,10.4,-,0.03,Rain,Light Rain,90,2013-08-24 16:53:00
9:53 AM,54.0,52.0,93,29.64,5.0,East,10.4,-,0.04,Rain,Rain,90,2013-08-24 17:53:00
10:53 AM,53.1,52.0,96,29.65,4.0,East,12.7,-,0.05,Rain,Rain,90,2013-08-24 18:53:00
11:53 AM,54.0,52.0,93,29.65,4.0,East,15.0,-,0.07,Rain,Rain,100,2013-08-24 19:53:00
12:53 PM,54.0,52.0,93,29.65,7.0,ESE,9.2,-,0.06,Rain,Light Rain,110,2013-08-24 20:53:00
1:53 PM,55.0,51.1,86,29.65,10.0,East,11.5,-,0.01,,Overcast,100,2013-08-24 21:53:00
2:53 PM,55.0,52.0,89,29.65,10.0,East,8.1,-,N/A,,Overcast,90,2013-08-24 22:53:00
3:53 PM,55.9,52.0,87,29.63,10.0,East,9.2,-,0.00,,Overcast,80,2013-08-24 23:53:00
4:53 PM,55.9,53.1,90,29.63,10.0,East,3.5,-,0.00,,Overcast,80,2013-08-25 00:53:00
5:53 PM,55.0,53.1,93,29.63,10.0,Calm,Calm,-,0.00,Rain,Light Rain,0,2013-08-25 01:53:00
6:11 PM,55.9,54.0,93,29.63,10.0,Calm,Calm,-,0.00,Rain,Light Rain,0,2013-08-25 02:11:00
6:53 PM,54.0,52.0,93,29.63,10.0,Calm,Calm,-,0.00,,Overcast,0,2013-08-25 02:53:00
7:53 PM,54.0,53.1,97,29.64,10.0,Calm,Calm,-,N/A,,Overcast,0,2013-08-25 03:53:00
8:53 PM,53.1,52.0,96,29.64,10.0,Calm,Calm,-,N/A,Fog,Patches of Fog,0,2013-08-25 04:53:00
9:25 PM,52.0,51.1,97,29.65,10.0,Calm,Calm,-,N/A,Fog,Patches of Fog,0,2013-08-25 05:25:00
9:53 PM,53.1,52.0,96,29.65,10.0,Calm,Calm,-,N/A,Fog,Patches of Fog,0,2013-08-25 05:53:00
10:53 PM,53.1,51.1,93,29.67,10.0,East,4.6,-,0.00,Rain,Light Rain,80,2013-08-25 06:53:00
11:53 PM,53.1,52.0,96,29.68,10.0,Calm,Calm,-,0.00,Rain,Light Rain,0,2013-08-25 07:53:00